Time,TemperatureF,DewpointF,PressureIn,WindDirection,WindDirectionDegrees,WindSpeedMPH,WindSpeedGustMPH,Humidity,HourlyPrecipIn,Conditions,Clouds,dailyrainin,SolarRadiationWatts/m^2,SoftwareType,DateUTC
2013-03-12 00:01:00,48.0,48.0,-100.00,SSW,200,10.0,23.0,100,0.01,,,0.08,0.000000,,2013-03-12 04:01:00,
2013-03-12 00:32:00,48.0,48.0,-100.00,SSW,200,10.0,23.0,100,0.01,,,0.08,0.000000,,2013-03-12 04:32:00,
2013-03-12 00:43:00,48.0,48.0,-100.00,SSW,200,10.0,23.0,100,0.01,,,0.08,0.000000,,2013-03-12 04:43:00,
2013-03-12 00:52:00,48.0,48.0,-100.00,SSW,200,10.0,23.0,100,0.01,,,0.08,0.000000,,2013-03-12 04:52:00,
2013-03-12 01:01:00,48.0,48.0,-100.00,SSW,202,13.0,23.0,100,0.02,,,0.10,0.000000,,2013-03-12 05:01:00,
2013-03-12 01:32:00,48.0,48.0,-100.00,SSW,202,13.0,23.0,100,0.02,,,0.10,0.000000,,2013-03-12 05:32:00,
2013-03-12 01:42:00,48.0,48.0,-100.00,SSW,202,13.0,23.0,100,0.02,,,0.10,0.000000,,2013-03-12 05:42:00,
2013-03-12 01:52:00,48.0,48.0,-100.00,SSW,202,13.0,23.0,100,0.02,,,0.10,0.000000,,2013-03-12 05:52:00,
2013-03-12 02:01:00,48.0,48.0,-100.00,SSW,199,12.0,20.0,100,0.01,,,0.11,0.000000,,2013-03-12 06:01:00,
2013-03-12 02:32:00,48.0,48.0,-100.00,SSW,199,12.0,20.0,100,0.01,,,0.11,0.000000,,2013-03-12 06:32:00,
2013-03-12 02:42:00,48.0,48.0,-100.00,SSW,199,12.0,20.0,100,0.01,,,0.11,0.000000,,2013-03-12 06:42:00,
2013-03-12 02:52:00,48.0,48.0,-100.00,SSW,199,12.0,20.0,100,0.01,,,0.11,0.000000,,2013-03-12 06:52:00,
2013-03-12 03:01:00,48.0,48.0,-100.00,SSW,204,12.0,22.0,100,0.00,,,0.11,0.000000,,2013-03-12 07:01:00,
2013-03-12 03:32:00,48.0,48.0,-100.00,SSW,204,12.0,22.0,100,0.00,,,0.11,0.000000,,2013-03-12 07:32:00,
2013-03-12 03:42:00,48.0,48.0,-100.00,SSW,204,12.0,22.0,100,0.00,,,0.11,0.000000,,2013-03-12 07:42:00,
2013-03-12 03:52:00,48.0,48.0,-100.00,SSW,204,12.0,22.0,100,0.00,,,0.11,0.000000,,2013-03-12 07:52:00,
2013-03-12 04:01:00,49.0,49.0,-100.00,SSW,194,8.0,21.0,100,0.00,,,0.11,0.000000,,2013-03-12 08:01:00,
2013-03-12 04:33:00,49.0,49.0,-100.00,SSW,194,8.0,21.0,100,0.00,,,0.11,0.000000,,2013-03-12 08:33:00,
2013-03-12 04:42:00,49.0,49.0,-100.00,SSW,194,8.0,21.0,100,0.00,,,0.11,0.000000,,2013-03-12 08:42:00,
2013-03-12 04:52:00,49.0,49.0,-100.00,SSW,194,8.0,21.0,100,0.00,,,0.11,0.000000,,2013-03-12 08:52:00,
2013-03-12 05:01:00,46.0,46.0,-100.00,WNW,294,6.0,16.0,100,0.11,,,0.22,0.000000,,2013-03-12 09:01:00,
2013-03-12 05:22:00,46.0,46.0,-100.00,WNW,294,6.0,16.0,100,0.11,,,0.22,0.000000,,2013-03-12 09:22:00,
2013-03-12 05:33:00,46.0,46.0,-100.00,WNW,294,6.0,16.0,100,0.11,,,0.22,0.000000,,2013-03-12 09:33:00,
2013-03-12 05:43:00,46.0,46.0,-100.00,WNW,294,6.0,16.0,100,0.11,,,0.22,0.000000,,2013-03-12 09:43:00,
2013-03-12 05:52:00,46.0,46.0,-100.00,WNW,294,6.0,16.0,100,0.11,,,0.22,0.000000,,2013-03-12 09:52:00,
2013-03-12 06:01:00,39.0,39.0,-100.00,North,1,7.0,12.0,100,0.08,,,0.30,0.000000,,2013-03-12 10:01:00,
2013-03-12 06:33:00,39.0,39.0,-100.00,North,1,7.0,12.0,100,0.08,,,0.30,0.000000,,2013-03-12 10:33:00,
2013-03-12 06:42:00,39.0,39.0,-100.00,North,1,7.0,12.0,100,0.08,,,0.30,0.000000,,2013-03-12 10:42:00,
2013-03-12 06:53:00,39.0,39.0,-100.00,North,1,7.0,12.0,100,0.08,,,0.30,0.000000,,2013-03-12 10:53:00,
2013-03-12 07:01:00,36.0,36.0,-100.00,NNE,16,6.0,18.0,100,0.03,,,0.33,0.000000,,2013-03-12 11:01:00,
2013-03-12 07:22:00,36.0,36.0,-100.00,NNE,16,6.0,18.0,100,0.03,,,0.33,0.000000,,2013-03-12 11:22:00,
2013-03-12 07:33:00,36.0,36.0,-100.00,NNE,16,6.0,18.0,100,0.03,,,0.33,0.000000,,2013-03-12 11:33:00,
2013-03-12 07:42:00,36.0,36.0,-100.00,NNE,16,6.0,18.0,100,0.03,,,0.33,0.000000,,2013-03-12 11:42:00,
2013-03-12 07:52:00,36.0,36.0,-100.00,NNE,16,6.0,18.0,100,0.03,,,0.33,0.000000,,2013-03-12 11:52:00,
2013-03-12 08:01:00,35.0,35.0,-100.00,North,3,6.0,12.0,100,0.00,,,0.33,1.000000,,2013-03-12 12:01:00,
2013-03-12 08:32:00,35.0,35.0,-100.00,North,3,6.0,12.0,100,0.00,,,0.33,1.000000,,2013-03-12 12:32:00,
2013-03-12 08:42:00,35.0,35.0,-100.00,North,3,6.0,12.0,100,0.00,,,0.33,1.000000,,2013-03-12 12:42:00,
2013-03-12 08:52:00,35.0,35.0,-100.00,North,3,6.0,12.0,100,0.00,,,0.33,1.000000,,2013-03-12 12:52:00,
2013-03-12 09:01:00,34.0,33.0,-100.00,NNW,337,8.0,16.0,97,0.00,,,0.33,27.000000,,2013-03-12 13:01:00,
2013-03-12 09:33:00,34.0,33.0,-100.00,NNW,337,8.0,16.0,97,0.00,,,0.33,27.000000,,2013-03-12 13:33:00,
2013-03-12 09:43:00,34.0,33.0,-100.00,NNW,337,8.0,16.0,97,0.00,,,0.33,27.000000,,2013-03-12 13:43:00,
2013-03-12 09:52:00,34.0,33.0,-100.00,NNW,337,8.0,16.0,97,0.00,,,0.33,27.000000,,2013-03-12 13:52:00,
2013-03-12 10:01:00,34.0,33.0,-100.00,NNE,14,8.0,20.0,95,0.00,,,0.33,93.000000,,2013-03-12 14:01:00,
2013-03-12 10:33:00,34.0,33.0,-100.00,NNE,14,8.0,20.0,95,0.00,,,0.33,93.000000,,2013-03-12 14:33:00,
2013-03-12 10:43:00,34.0,33.0,-100.00,NNE,14,8.0,20.0,95,0.00,,,0.33,93.000000,,2013-03-12 14:43:00,
2013-03-12 10:53:00,34.0,33.0,-100.00,NNE,14,8.0,20.0,95,0.00,,,0.33,93.000000,,2013-03-12 14:53:00,
2013-03-12 11:01:00,36.0,32.0,-100.00,North,6,7.0,18.0,85,0.00,,,0.33,456.000000,,2013-03-12 15:01:00,
2013-03-12 11:32:00,36.0,32.0,-100.00,North,6,7.0,18.0,85,0.00,,,0.33,456.000000,,2013-03-12 15:32:00,
2013-03-12 11:43:00,36.0,32.0,-100.00,North,6,7.0,18.0,85,0.00,,,0.33,456.000000,,2013-03-12 15:43:00,
2013-03-12 11:53:00,36.0,32.0,-100.00,North,6,7.0,18.0,85,0.00,,,0.33,456.000000,,2013-03-12 15:53:00,
2013-03-12 12:01:00,39.0,34.0,-100.00,North,8,5.0,12.0,83,0.00,,,0.33,336.000000,,2013-03-12 16:01:00,
2013-03-12 12:33:00,39.0,34.0,-100.00,North,8,5.0,12.0,83,0.00,,,0.33,336.000000,,2013-03-12 16:33:00,
2013-03-12 12:43:00,39.0,34.0,-100.00,North,8,5.0,12.0,83,0.00,,,0.33,336.000000,,2013-03-12 16:43:00,
2013-03-12 12:53:00,39.0,34.0,-100.00,North,8,5.0,12.0,83,0.00,,,0.33,336.000000,,2013-03-12 16:53:00,
2013-03-12 13:01:00,35.0,30.0,-100.00,NNE,23,6.0,13.0,83,0.00,,,0.33,278.000000,,2013-03-12 17:01:00,
2013-03-12 13:34:00,35.0,30.0,-100.00,NNE,23,6.0,13.0,83,0.00,,,0.33,278.000000,,2013-03-12 17:34:00,
2013-03-12 13:44:00,35.0,30.0,-100.00,NNE,23,6.0,13.0,83,0.00,,,0.33,278.000000,,2013-03-12 17:44:00,
2013-03-12 13:54:00,35.0,30.0,-100.00,NNE,23,6.0,13.0,83,0.00,,,0.33,278.000000,,2013-03-12 17:54:00,
2013-03-12 14:01:00,35.0,30.0,-100.00,NE,36,5.0,12.0,83,0.00,,,0.33,315.000000,,2013-03-12 18:01:00,
2013-03-12 14:33:00,35.0,30.0,-100.00,NE,36,5.0,12.0,83,0.00,,,0.33,315.000000,,2013-03-12 18:33:00,
2013-03-12 14:43:00,35.0,30.0,-100.00,NE,36,5.0,12.0,83,0.00,,,0.33,315.000000,,2013-03-12 18:43:00,
2013-03-12 14:53:00,35.0,30.0,-100.00,NE,36,5.0,12.0,83,0.00,,,0.33,315.000000,,2013-03-12 18:53:00,
2013-03-12 15:01:00,36.0,30.0,-100.00,North,10,6.0,14.0,78,0.00,,,0.33,349.000000,,2013-03-12 19:01:00,
2013-03-12 15:33:00,36.0,30.0,-100.00,North,10,6.0,14.0,78,0.00,,,0.33,349.000000,,2013-03-12 19:33:00,
2013-03-12 15:44:00,36.0,30.0,-100.00,North,10,6.0,14.0,78,0.00,,,0.33,349.000000,,2013-03-12 19:44:00,
2013-03-12 15:53:00,36.0,30.0,-100.00,North,10,6.0,14.0,78,0.00,,,0.33,349.000000,,2013-03-12 19:53:00,
2013-03-12 16:01:00,39.0,29.0,-100.00,NE,38,5.0,15.0,68,0.00,,,0.33,760.000000,,2013-03-12 20:01:00,
2013-03-12 16:33:00,39.0,29.0,-100.00,NE,38,5.0,15.0,68,0.00,,,0.33,760.000000,,2013-03-12 20:33:00,
2013-03-12 16:42:00,39.0,29.0,-100.00,NE,38,5.0,15.0,68,0.00,,,0.33,760.000000,,2013-03-12 20:42:00,
2013-03-12 16:53:00,39.0,29.0,-100.00,NE,38,5.0,15.0,68,0.00,,,0.33,760.000000,,2013-03-12 20:53:00,
2013-03-12 17:01:00,36.0,28.0,-100.00,NNE,33,7.0,11.0,71,0.00,,,0.33,673.000000,,2013-03-12 21:01:00,
2013-03-12 17:33:00,36.0,28.0,-100.00,NNE,33,7.0,11.0,71,0.00,,,0.33,673.000000,,2013-03-12 21:33:00,
2013-03-12 17:43:00,36.0,28.0,-100.00,NNE,33,7.0,11.0,71,0.00,,,0.33,673.000000,,2013-03-12 21:43:00,
2013-03-12 17:53:00,36.0,28.0,-100.00,NNE,33,7.0,11.0,71,0.00,,,0.33,673.000000,,2013-03-12 21:53:00,
2013-03-12 18:01:00,36.0,28.0,-100.00,NNE,29,6.0,12.0,72,0.00,,,0.33,516.000000,,2013-03-12 22:01:00,
2013-03-12 18:33:00,36.0,28.0,-100.00,NNE,29,6.0,12.0,72,0.00,,,0.33,516.000000,,2013-03-12 22:33:00,
2013-03-12 18:43:00,36.0,28.0,-100.00,NNE,29,6.0,12.0,72,0.00,,,0.33,516.000000,,2013-03-12 22:43:00,
2013-03-12 18:53:00,36.0,28.0,-100.00,NNE,29,6.0,12.0,72,0.00,,,0.33,516.000000,,2013-03-12 22:53:00,
2013-03-12 19:01:00,32.0,26.0,-100.00,NNE,19,6.0,16.0,79,0.00,,,0.33,222.000000,,2013-03-12 23:01:00,
2013-03-12 19:34:00,32.0,26.0,-100.00,NNE,19,6.0,16.0,79,0.00,,,0.33,222.000000,,2013-03-12 23:34:00,
2013-03-12 19:43:00,32.0,26.0,-100.00,NNE,19,6.0,16.0,79,0.00,,,0.33,222.000000,,2013-03-12 23:43:00,
2013-03-12 19:53:00,32.0,26.0,-100.00,NNE,19,6.0,16.0,79,0.00,,,0.33,222.000000,,2013-03-12 23:53:00,
2013-03-12 20:01:00,30.0,25.0,-100.00,North,6,5.0,15.0,82,0.00,,,0.33,11.000000,,2013-03-13 00:01:00,
2013-03-12 20:33:00,30.0,25.0,-100.00,North,6,5.0,15.0,82,0.00,,,0.33,11.000000,,2013-03-13 00:33:00,
2013-03-12 20:42:00,30.0,25.0,-100.00,North,6,5.0,15.0,82,0.00,,,0.33,11.000000,,2013-03-13 00:42:00,
2013-03-12 20:53:00,30.0,25.0,-100.00,North,6,5.0,15.0,82,0.00,,,0.33,11.000000,,2013-03-13 00:53:00,
2013-03-12 21:01:00,29.0,24.0,-100.00,NNE,22,6.0,13.0,80,0.00,,,0.31,0.000000,,2013-03-13 01:01:00,
2013-03-12 21:33:00,29.0,24.0,-100.00,NNE,22,6.0,13.0,80,0.00,,,0.31,0.000000,,2013-03-13 01:33:00,
2013-03-12 21:43:00,29.0,24.0,-100.00,NNE,22,6.0,13.0,80,0.00,,,0.31,0.000000,,2013-03-13 01:43:00,
2013-03-12 21:53:00,29.0,24.0,-100.00,NNE,22,6.0,13.0,80,0.00,,,0.31,0.000000,,2013-03-13 01:53:00,
2013-03-12 22:01:00,29.0,24.0,-100.00,NNE,12,4.0,12.0,81,0.00,,,0.30,0.000000,,2013-03-13 02:01:00,
2013-03-12 22:33:00,29.0,24.0,-100.00,NNE,12,4.0,12.0,81,0.00,,,0.30,0.000000,,2013-03-13 02:33:00,
2013-03-12 22:43:00,29.0,24.0,-100.00,NNE,12,4.0,12.0,81,0.00,,,0.30,0.000000,,2013-03-13 02:43:00,
2013-03-12 22:53:00,29.0,24.0,-100.00,NNE,12,4.0,12.0,81,0.00,,,0.30,0.000000,,2013-03-13 02:53:00,
2013-03-12 23:01:00,29.0,23.0,-100.00,NNE,25,5.0,13.0,79,0.00,,,0.26,0.000000,,2013-03-13 03:01:00,
2013-03-12 23:33:00,29.0,23.0,-100.00,NNE,25,5.0,13.0,79,0.00,,,0.26,0.000000,,2013-03-13 03:33:00,
2013-03-12 23:42:00,29.0,23.0,-100.00,NNE,25,5.0,13.0,79,0.00,,,0.26,0.000000,,2013-03-13 03:42:00,
2013-03-12 23:53:00,29.0,23.0,-100.00,NNE,25,5.0,13.0,79,0.00,,,0.26,0.000000,,2013-03-13 03:53:00,